Regional Weather Roundup
Issued by NWS

Home | Current Version | Previous Version | Graphics & Text | Print | Product List | Glossary On
Versions: 1 2 3 4 5 6 7 8 9 10 11 12 13 14 15 16 17 18 19 20 21 22 23 24 25 26 27 28 29 30 31 32 33 34 35 36 37 38 39 40 41 42 43 44 45 46 47 48 49 50
000
ASUS44 KMEG 270310
RWRTN
TENNESSEE HOURLY STATE WEATHER ROUNDUP
NATIONAL WEATHER SERVICE MEMPHIS TN
1000 PM CDT TUE MAY 26 2015

TNZ002-004-019-021-049-052-054-088>092-270400-
WEST TENNESSEE

CITY           SKY/WX    TMP DP  RH WIND       PRES   REMARKS
MEMPHIS INTL   PTCLDY    73  65  75 S5        30.09R
NWS MEMPHIS      N/A     72 N/A N/A MISG        N/A
JACKSON        PTCLDY    67  63  87 S5        30.09R
DYERSBURG      PTCLDY    68  54  60 CALM      30.09R
PARIS          CLEAR     64  61  88 CALM      30.09R
LEXINGTON      CLEAR     68  64  88 CALM      30.09R
$$

TNZ008-025-027-028-033-062-065-066-270400-
NORTH MIDDLE TENNESSEE

CITY           SKY/WX    TMP DP  RH WIND       PRES   REMARKS
NASHVILLE      PTCLDY    69  67  93 S6        30.11R
CLARKSVILLE    CLEAR     69  65  86 S5        30.08R
SMYRNA         PTCLDY    72  68  87 CALM      30.12R
COOKEVILLE     PTCLDY    70  68  94 S5        30.13R
CROSSVILLE     CLOUDY    69  65  86 S7        30.19R
$$

TNZ061-075-076-078-094-096-097-270400-
SOUTH MIDDLE TENNESSEE

CITY           SKY/WX    TMP DP  RH WIND       PRES   REMARKS
FAYETTEVILLE   CLEAR    N/A N/A N/A MISG      30.15R
TULLAHOMA      PTCLDY    70  64  83 S6        30.16R
WINCHESTER     PTCLDY    70  66  88 SE6       30.16R
MCMINNVILLE    PTCLDY    72  70  94 CALM      30.15R
COLUMBIA       CLEAR     72  66  83 S7        30.11R
SHELBYVILLE    CLEAR     70  66  88 S5        30.14R
$$

TNZ017-018-042-046-047-270400-
NORTHEAST TENNESSEE

CITY           SKY/WX    TMP DP  RH WIND       PRES   REMARKS
TRI CITIES     CLOUDY    76  63  64 S5        30.19R
ELIZABETHTON   LGT RAIN  68  64  88 CALM      30.21R
$$

TNZ012-013-036-069-073-074-270400-
CENTRAL EAST TENNESSEE

CITY           SKY/WX    TMP DP  RH WIND       PRES   REMARKS
KNOXVILLE      CLOUDY    72  61  68 SW6       30.17R
OAK RIDGE      CLOUDY    71  68  90 VRB5      30.19R
GATLINBURG     PTCLDY    72  61  68 CALM      30.17R
MORRISTOWN     CLEAR     73  63  68 W8        30.20R
$$

TNZ083-085-099-270400-
SOUTHEAST TENNESSEE

CITY           SKY/WX    TMP DP  RH WIND       PRES   REMARKS
CHATTANOOGA    MOCLDY    68  66  93 S6        30.19R
$$

SKY/WX REPORTED AS FAIR MEANS FEW OR NO CLOUDS BELOW
12 THOUSAND FEET.




USA.gov is the U.S. government's official web portal to all federal, state and local government web resources and services.